When you browse on this site, cookies collect data to enhance your experience and personalize the content and advertising you see.
Visit our Privacy Policy to learn more. By continuing to use the site, you agree to this use of cookies and data.
  • Em Portugal
  • Lista de países
  • Para 7 dias
  • Temperatura da água
  • Mapas de satélite
  • Mapa do tempo
  • Widgets de tempo
  • user-avatar
    Iniciar Sessão

    Previsão horária em Yamagata

    Hoje, 22 Janeiro, Terça-feira

    Tempo Temperatura Precipitação Vento Pressão Humidade
    00:00 -2°C° 0.5 mm 1 m/s 713 mmHg 90%
    01:00 -2°C° 0.5 mm 1 m/s 713 mmHg 90%
    02:00 -2°C° 0.5 mm 1 m/s 713 mmHg 91%
    03:00 -2°C° 0 mm 1 m/s 713 mmHg 91%
    04:00 -2°C° 0.4 mm 1 m/s 713 mmHg 91%
    05:00 -2°C° 0.4 mm 1 m/s 713 mmHg 91%
    06:00 -2°C° 0.4 mm 1 m/s 714 mmHg 91%
    07:00 -3°C° 0.1 mm 2 m/s 714 mmHg 87%
    08:00 -4°C° 0.1 mm 3 m/s 714 mmHg 84%
    09:00 -3°C° 0.1 mm 4 m/s 715 mmHg 80%
    10:00 -4°C° 0.2 mm 5 m/s 715 mmHg 79%
    11:00 -4°C° 0.2 mm 5 m/s 715 mmHg 78%
    12:00 -4°C° 0.2 mm 6 m/s 715 mmHg 77%
    13:00 -4°C° 0.1 mm 6 m/s 715 mmHg 78%
    14:00 -4°C° 0.1 mm 6 m/s 715 mmHg 78%
    15:00 -4°C° 0.1 mm 6 m/s 715 mmHg 78%
    16:00 -4°C° 0.1 mm 5 m/s 716 mmHg 80%
    17:00 -4°C° 0.1 mm 4 m/s 716 mmHg 82%
    18:00 -4°C° 0.1 mm 3 m/s 716 mmHg 84%
    19:00 -5°C° 0 mm 3 m/s 717 mmHg 85%
    20:00 -5°C° 0 mm 3 m/s 717 mmHg 86%
    21:00 -4°C° 0 mm 2 m/s 717 mmHg 87%
    22:00 -4°C° 0.1 mm 2 m/s 717 mmHg 87%
    23:00 -3°C° 0.1 mm 2 m/s 717 mmHg 88%

    Amanhã, 23 Janeiro, Quarta-feira

    Tempo Temperatura Precipitação Vento Pressão Humidade
    00:00 -1°C° 0.1 mm 1 m/s 718 mmHg 88%
    01:00 -2°C° 0.1 mm 1 m/s 717 mmHg 89%
    02:00 -2°C° 0.1 mm 1 m/s 717 mmHg 89%
    03:00 -2°C° 0.1 mm 1 m/s 717 mmHg 90%
    04:00 -2°C° 0.1 mm 1 m/s 717 mmHg 89%
    05:00 -2°C° 0.1 mm 1 m/s 717 mmHg 89%
    06:00 -2°C° 0.1 mm 1 m/s 717 mmHg 89%
    07:00 -1°C° 0 mm 1 m/s 716 mmHg 87%
    08:00 0°C° 0 mm 1 m/s 716 mmHg 85%
    09:00 +1°C° 0 mm 1 m/s 716 mmHg 84%
    10:00 +1°C° 0.1 mm 2 m/s 715 mmHg 82%
    11:00 +2°C° 0.1 mm 2 m/s 714 mmHg 81%
    12:00 +3°C° 0.1 mm 2 m/s 713 mmHg 80%
    13:00 +2°C° 0.5 mm 3 m/s 712 mmHg 79%
    14:00 +2°C° 0.5 mm 3 m/s 712 mmHg 78%
    15:00 +2°C° 0.5 mm 3 m/s 711 mmHg 78%
    16:00 +1°C° 2 mm 3 m/s 711 mmHg 82%
    17:00 +1°C° 2 mm 3 m/s 712 mmHg 86%
    18:00 0°C° 2 mm 3 m/s 712 mmHg 90%
    19:00 -1°C° 1.2 mm 3 m/s 712 mmHg 91%
    20:00 -2°C° 1.2 mm 3 m/s 713 mmHg 92%
    21:00 -4°C° 1.2 mm 3 m/s 713 mmHg 92%
    22:00 -5°C° 0.8 mm 4 m/s 713 mmHg 88%
    23:00 -6°C° 0.8 mm 5 m/s 713 mmHg 84%

    Depois de amanhã, 24 Janeiro, Quinta-feira

    Tempo Temperatura Precipitação Vento Pressão Humidade
    00:00 -6°C° 0.8 mm 6 m/s 713 mmHg 79%
    01:00 -7°C° 0.1 mm 7 m/s 713 mmHg 79%
    02:00 -8°C° 0.1 mm 7 m/s 713 mmHg 78%
    03:00 -9°C° 0.1 mm 7 m/s 713 mmHg 77%
    04:00 -9°C° 0.2 mm 7 m/s 714 mmHg 78%
    05:00 -10°C° 0.2 mm 8 m/s 714 mmHg 79%
    06:00 -10°C° 0.2 mm 8 m/s 714 mmHg 80%
    07:00 -8°C° 0.2 mm 8 m/s 715 mmHg 79%
    08:00 -8°C° 0.2 mm 8 m/s 715 mmHg 78%
    09:00 -9°C° 0.2 mm 9 m/s 716 mmHg 77%
    10:00 -9°C° 0.2 mm 9 m/s 716 mmHg 77%
    11:00 -8°C° 0.2 mm 9 m/s 716 mmHg 77%
    12:00 -8°C° 0.2 mm 9 m/s 716 mmHg 77%
    13:00 -8°C° 0.2 mm 9 m/s 716 mmHg 77%
    14:00 -7°C° 0.2 mm 8 m/s 716 mmHg 77%
    15:00 -7°C° 0.2 mm 8 m/s 716 mmHg 77%
    16:00 -7°C° 0.1 mm 7 m/s 717 mmHg 79%
    17:00 -6°C° 0.1 mm 6 m/s 717 mmHg 81%
    18:00 -7°C° 0.1 mm 5 m/s 717 mmHg 83%
    19:00 -7°C° 0.1 mm 5 m/s 718 mmHg 84%
    20:00 -7°C° 0.1 mm 4 m/s 718 mmHg 84%
    21:00 -7°C° 0.1 mm 4 m/s 718 mmHg 85%
    22:00 -7°C° 0.1 mm 4 m/s 718 mmHg 85%
    23:00 -7°C° 0.1 mm 4 m/s 718 mmHg 85%

    25 Janeiro, Sexta-feira

    Tempo Temperatura Precipitação Vento Pressão Humidade
    00:00 -7°C° 0.1 mm 4 m/s 718 mmHg 85%
    01:00 -6°C° 0 mm 3 m/s 719 mmHg 86%
    02:00 -7°C° 0 mm 3 m/s 719 mmHg 87%
    03:00 -6°C° 0 mm 2 m/s 719 mmHg 88%
    04:00 -6°C° 0.1 mm 2 m/s 719 mmHg 88%
    05:00 -6°C° 0.1 mm 2 m/s 719 mmHg 89%
    06:00 -4°C° 0.1 mm 1 m/s 719 mmHg 89%
    07:00 -5°C° 0.1 mm 2 m/s 719 mmHg 87%
    08:00 -4°C° 0.1 mm 2 m/s 719 mmHg 84%
    09:00 -3°C° 0.1 mm 2 m/s 720 mmHg 81%
    10:00 -4°C° 0.1 mm 3 m/s 719 mmHg 80%
    11:00 -2°C° 0.1 mm 3 m/s 719 mmHg 79%
    12:00 -2°C° 0.1 mm 3 m/s 719 mmHg 77%
    13:00 -2°C° 0.1 mm 3 m/s 719 mmHg 77%
    14:00 -2°C° 0.1 mm 3 m/s 718 mmHg 78%
    15:00 -2°C° 0.1 mm 3 m/s 718 mmHg 78%
    16:00 -3°C° 0.1 mm 2 m/s 718 mmHg 81%
    17:00 -2°C° 0.1 mm 1 m/s 718 mmHg 85%
    18:00 -3°C° 0.1 mm 1 m/s 718 mmHg 88%
    19:00 -3°C° 0 mm 1 m/s 718 mmHg 88%
    20:00 -4°C° 0 mm 1 m/s 718 mmHg 88%
    21:00 -4°C° 0 mm 1 m/s 718 mmHg 88%
    22:00 -4°C° 0 mm 1 m/s 718 mmHg 88%
    23:00 -4°C° 0 mm 1 m/s 717 mmHg 88%

    26 Janeiro, Sábado

    Tempo Temperatura Precipitação Vento Pressão Humidade
    00:00 -3°C° 0 mm 1 m/s 717 mmHg 88%
    01:00 -4°C° 0 mm 1 m/s 717 mmHg 88%
    02:00 -4°C° 0 mm 1 m/s 716 mmHg 88%
    03:00 -4°C° 0 mm 1 m/s 716 mmHg 88%
    04:00 -4°C° 0.1 mm 1 m/s 716 mmHg 88%
    05:00 -4°C° 0.1 mm 1 m/s 715 mmHg 88%
    06:00 -4°C° 0.1 mm 1 m/s 715 mmHg 88%
    07:00 -3°C° 0.1 mm 1 m/s 715 mmHg 87%
    08:00 -3°C° 0.1 mm 0 m/s 716 mmHg 86%
    09:00 -2°C° 0.1 mm 0 m/s 716 mmHg 85%
    10:00 0°C° 0.1 mm 1 m/s 715 mmHg 83%
    11:00 0°C° 0.1 mm 1 m/s 715 mmHg 82%
    12:00 +1°C° 0.1 mm 1 m/s 715 mmHg 81%
    13:00 0°C° 0.3 mm 1 m/s 714 mmHg 82%
    14:00 -2°C° 0.3 mm 2 m/s 714 mmHg 83%
    15:00 -2°C° 0.3 mm 2 m/s 714 mmHg 84%
    16:00 -3°C° 0.2 mm 2 m/s 714 mmHg 85%
    17:00 -2°C° 0.2 mm 1 m/s 714 mmHg 87%
    18:00 -3°C° 0.2 mm 1 m/s 714 mmHg 88%
    19:00 -4°C° 0 mm 1 m/s 715 mmHg 88%
    20:00 -7°C° 0 mm 1 m/s 715 mmHg 88%
    21:00 -8°C° 0 mm 1 m/s 715 mmHg 87%
    22:00 -8°C° 0 mm 1 m/s 715 mmHg 87%
    23:00 -8°C° 0 mm 1 m/s 715 mmHg 87%

    27 Janeiro, Domingo

    Tempo Temperatura Precipitação Vento Pressão Humidade
    00:00 -9°C° 0 mm 1 m/s 715 mmHg 87%
    01:00 -9°C° 0 mm 1 m/s 715 mmHg 87%
    02:00 -9°C° 0 mm 1 m/s 715 mmHg 88%
    03:00 -9°C° 0 mm 1 m/s 715 mmHg 88%
    04:00 -9°C° 0 mm 1 m/s 715 mmHg 88%
    05:00 -9°C° 0 mm 1 m/s 716 mmHg 88%
    06:00 -9°C° 0 mm 1 m/s 716 mmHg 87%
    07:00 -7°C° 0 mm 1 m/s 717 mmHg 85%
    08:00 -6°C° 0 mm 1 m/s 718 mmHg 82%
    09:00 -3°C° 0 mm 1 m/s 718 mmHg 80%
    10:00 -4°C° 0.1 mm 2 m/s 718 mmHg 78%
    11:00 -3°C° 0.1 mm 2 m/s 718 mmHg 77%
    12:00 -2°C° 0.1 mm 3 m/s 718 mmHg 75%
    13:00 -2°C° 0.1 mm 3 m/s 719 mmHg 76%
    14:00 -2°C° 0.1 mm 3 m/s 719 mmHg 77%
    15:00 -2°C° 0.1 mm 3 m/s 719 mmHg 78%
    16:00 -4°C° 0.1 mm 3 m/s 719 mmHg 81%
    17:00 -4°C° 0.1 mm 3 m/s 720 mmHg 84%
    18:00 -4°C° 0.1 mm 2 m/s 720 mmHg 87%
    19:00 -5°C° 0 mm 2 m/s 720 mmHg 88%
    20:00 -5°C° 0 mm 2 m/s 720 mmHg 88%
    21:00 -5°C° 0 mm 2 m/s 720 mmHg 89%
    22:00 -5°C° 0 mm 2 m/s 720 mmHg 89%
    23:00 -5°C° 0 mm 2 m/s 720 mmHg 89%
    Mostrar mais